• Join FlightAware (Why Join?)
  • Login
  • US Flag 
06:19AM EST


 

Airport Tracker/Info


-or-


 

Live Flight TrackerFlight Track Log ✈ CHQ4729 ✈ 22-Jan-2014 ✈ KDCA - KCLE

Flight Track Log - Related Links

Times and Time Zones

All times are in EST time to prevent confusion due to time zone crossing. See the CHQ4729 flight status page for this flight to view local times or setup timezone preferences in your user account.

Time Position Orientation Groundspeed Altitude Reporting Facility
EST Latitude Longitude Course Direction KTS MPH feet Rate Location/Type
05:42PM 38.9000 -77.0833 North 176 203 2,900  Level Potomac TRACON
05:43PM 38.9333 -77.1333 311° West 213 245 5,200 2,350 Climbing Potomac TRACON
05:44PM 39.0125 -77.3195 339° North  Level Estimated
05:44PM 38.9833 -77.1833 322° Northwest 238 274 7,600  Level Potomac TRACON
05:45PM 39.0658 -77.4137 339° North  Level Estimated
05:46PM 39.1191 -77.5080 336° Northwest  Level Estimated
05:47PM 39.2094 -77.4979 North  Level FlightAware Approximate
05:47PM 39.0608 -77.3747 298° West 251 289 12,700  Level Washington Center
05:48PM 39.0886 -77.4608 293° West 257 296 14,800 2,033 Climbing Washington Center
05:49PM 39.1206 -77.5500 295° West 262 302 16,800 1,150 Climbing Washington Center
05:50PM 39.1819 -77.6133 321° Northwest 267 307 17,100 545 Climbing Washington Center
05:51PM 39.2622 -77.6692 332° Northwest 308 354 17,900 908 Climbing Washington Center
05:52PM 39.3467 -77.7306 331° Northwest 320 368 18,900 1,017 Climbing Washington Center
05:53PM 39.4269 -77.7892 331° Northwest 349 402 19,900 1,034 Climbing Washington Center
05:55PM 39.6400 -77.9506 330° Northwest 368 423 22,400 1,024 Climbing Cleveland Center
05:56PM 39.7303 -78.0194 330° Northwest 375 432 23,400 968 Climbing Cleveland Center
05:57PM 39.8219 -78.0886 330° Northwest 376 433 24,400 960 Climbing Cleveland Center
05:58PM 39.8933 -78.1836 314° West 368 423 25,400 774 Climbing Cleveland Center
05:59PM 39.9669 -78.2956 311° West 370 426 26,000 293 Climbing Cleveland Center
06:00PM 40.0361 -78.4017 310° West 381 438 26,000 48 Level Cleveland Center
06:01PM 40.1081 -78.5108 311° West 392 451 26,100 48 Climbing Cleveland Center
06:02PM 40.1953 -78.6450 310° West 399 459 26,100  Level Cleveland Center
06:03PM 40.2686 -78.7586 310° West 404 465 26,100  Level Cleveland Center
06:04PM 40.3397 -78.8733 309° West 405 466 26,100  Level Cleveland Center
06:05PM 40.4061 -78.9881 307° West 401 461 26,100  Level Cleveland Center
06:06PM 40.4728 -79.1075 306° West 401 461 26,100  Level Cleveland Center
06:07PM 40.5389 -79.2267 306° West 401 461 26,100  Level Cleveland Center
06:08PM 40.6189 -79.3725 306° West 416 479 26,100  Level Cleveland Center
06:10PM 40.6856 -79.4897 307° West 408 470 26,100  Level Cleveland Center
06:11PM 40.7503 -79.6075 306° West 404 465 26,100  Level Cleveland Center
06:12PM 40.8150 -79.7264 306° West 402 463 26,100  Level Cleveland Center
06:13PM 40.8808 -79.8439 307° West 402 463 26,100  Level Cleveland Center
06:14PM 40.9581 -79.9850 306° West 403 464 26,100  Level Cleveland Center
06:15PM 41.0231 -80.1028 306° West 400 460 26,100 -194 Level Cleveland Center
06:16PM 41.0878 -80.2211 306° West 401 461 25,700 -774 Descending Cleveland Center
06:17PM 41.1544 -80.3444 306° West 395 455 24,500 -968 Descending Cleveland Center
06:18PM 41.2156 -80.4622 305° West 383 441 23,700 -1,113 Descending Cleveland Center
06:19PM 41.2764 -80.5761 305° West 379 436 22,200 -1,694 Descending Cleveland Center
06:20PM 41.3361 -80.6864 306° West 372 428 20,200 -2,400 Descending Cleveland Center
06:21PM 41.3886 -80.8269 297° West 360 414 17,200 -2,889 Descending Cleveland Center
06:22PM 41.4214 -80.9128 297° West 341 392 15,000 -2,806 Descending Cleveland Center
06:22PM 41.4322 -80.9408 297° West 348 400 14,300 -2,875 Descending Cleveland Center
06:22PM 41.4542 -80.9983 297° West 334 384 12,700 -2,850 Descending Cleveland Center
06:23PM 41.4886 -81.0872 297° West 318 366 10,500 -1,742 Descending Cleveland Center
06:24PM 41.5103 -81.1506 295° West 311 358 10,000 -492 Descending Cleveland Center
06:24PM 41.5178 -81.1867 286° West 276 318 10,000  Level Cleveland Center
06:25PM 41.5308 -81.2519 285° West 291 335 10,000  Level Cleveland Center
06:25PM 41.5381 -81.2903 284° West 291 335 10,000 -97 Level Cleveland Center
06:26PM 41.5517 -81.3517 287° West 281 323 9,900 -590 Descending Cleveland Center
06:26PM 41.5575 -81.3800 285° West 230 265 9,400 -1,742 Descending Cleveland Center
06:27PM 41.5608 -81.4506 274° West 237 273 8,100 -1,562 Descending Cleveland Center
06:28PM 41.5647 -81.4872 278° West 235 270 7,500 -1,452 Descending Cleveland Center
06:28PM 41.5644 -81.5375 270° West 236 272 6,600 -1,527 Descending Cleveland Center
06:28PM 41.5619 -81.5650 263° West 232 267 6,100 -1,452 Descending Cleveland Center
06:29PM 41.5567 -81.6208 263° West 230 265 5,100 -1,444 Descending Cleveland Center
06:29PM 41.5511 -81.6389 248° West 218 251 4,800 -1,048 Descending Cleveland Center
06:30PM 41.5231 -81.6772 226° Southwest 205 236 4,000 -658 Descending Cleveland Center
06:31PM 41.5122 -81.6967 233° Southwest 164 189 4,000 -581 Level Cleveland Center
06:31PM 41.4925 -81.7258 228° Southwest 180 207 3,400 -984 Descending Cleveland Center
06:32PM 41.4806 -81.7447 230° Southwest 170 196 3,000 -871 Descending Cleveland Center
06:32PM 41.4650 -81.7683 229° Southwest 160 184 2,500 -800 Descending Cleveland Center
06:33PM 41.4558 -81.7853 234° Southwest 124 143 2,200 -871 Descending Cleveland Center
06:33PM 41.4392 -81.8094 227° Southwest 131 151 1,600 -764 Descending Cleveland Center
06:33PM 41.4364 -81.8158 240° Southwest 122 140 1,500 -677 Descending Cleveland Center
06:34PM 41.4172 -81.8450 229° Southwest 128 147 900 -692 Descending Cleveland Center